Flag for Czech Republic Weather past 2 weeks in Brno, Czech Republic

Now
67 °F

Passing clouds.


Feels Like: 67 °F
Forecast: 60 / 84 °F
Wind: 2 mph from Northeast

Location: Brno / Turany

Current Time: Jul 1, 2015 at 8:46:28 AM

Latest Report: Jul 1, 2015 at 8:00 AM


Visibility: 16 mi

Pressure: 30.17 "Hg

Humidity: 71%

Dew point: 58 °F

Location of BrnoLocation

Historic Weather in Brno — Graph

°F

Brno temperature yesterday

Maximum temperature yesterday: 81 °F (at 4:00 PM)
Minimum temperature yesterday: 52 °F (at 4:00 AM)
Average temperature yesterday: 67 °F

Past Weeks' High & Low Weather Summary

 TemperatureHumidityPressure
High81 °F (Jun 30, 4:00 PM)98% (Jun 23, 6:00 AM)30.26 "Hg (Jun 23, 6:00 AM)
Low45 °F (Jun 18, 4:00 AM)37% (Jun 25, 5:00 PM)29.74 "Hg (Jun 23, 4:00 AM)
Average62 °F65%30.05 "Hg
* Reported Jun 16 7:00 AM — Jul 1 7:00 AM, Brno, Weather by CustomWeather, © 2015

Note: Actual official high and low records may vary slightly from our data, if they occured in-between our weather recording intervals... More about our weather records

Advertising

Brno weather history for previous 24 hours

 ConditionsComfort  
Time TempWeatherWind HumidityBarometerVisibility
7:00 AM
Wed, Jul 1
63 °FScattered clouds.2 mph78%30.18 "Hg16 mi
6:00 AM61 °FPartly sunny.1 mph80%30.17 "Hg16 mi
5:00 AM61 °FPartly sunny.1 mph79%30.16 "Hg19 mi
4:00 AM59 °FPassing clouds.1 mph83%30.16 "Hg19 mi
3:00 AM62 °FPassing clouds.2 mph77%30.16 "Hg19 mi
2:00 AM62 °FPassing clouds.1 mph78%30.16 "Hg19 mi
1:00 AM65 °FPassing clouds.2 mph69%30.16 "Hg19 mi
12:00 AM65 °FPassing clouds.3 mph70%30.16 "Hg25 mi
10:00 PM
Tue, Jun 30
69 °FPassing clouds.2 mph62%30.14 "Hg28 mi
9:00 PM71 °FScattered clouds.5 mph62%30.12 "Hg28 mi
8:00 PM71 °FPartly sunny.3 mph65%30.11 "Hg31 mi
6:00 PM75 °FSprinkles. Overcast.3 mph52%30.09 "Hg25 mi
4:00 PM81 °FOvercast.6 mph40%30.09 "Hg25 mi
3:00 PM80 °FPartly sunny.3 mph39%30.10 "Hg25 mi
2:00 PM78 °FPartly sunny.2 mph44%30.12 "Hg25 mi
1:00 PM75 °FPartly sunny.2 mph45%30.14 "Hg25 mi
12:00 PM75 °FOvercast.1 mph46%30.15 "Hg25 mi
11:00 AM72 °FOvercast.1 mph53%30.17 "Hg16 mi
10:00 AM69 °FPartly sunny.1 mph62%30.17 "Hg16 mi
9:00 AM65 °FPartly sunny.2 mph74%30.18 "Hg16 mi
8:00 AM60 °FPartly sunny.1 mph80%30.18 "Hg12 mi
Weather by CustomWeather, © 2015

See weather overviewHow to use our weather pages